This is the latest recevied weather packets stored in our database for station/object PY2FGD-15. If no packets are shown the sender has not sent any weather packets the latest 10 day(s).
| Time | Temp. | Humidity | Pressure | Rain* | Wind** | Luminosity | Snow |
|---|---|---|---|---|---|---|---|
| 1777749004 | 24.44° C | 62% | 1016 hPa | 2.54 mm | - | - | - |
| 1777746606 | 26.11° C | 62% | 1016 hPa | 2.54 mm | - | - | - |
| 1777745403 | 25.56° C | 61% | 1016 hPa | 2.54 mm | - | - | - |
| 1777743604 | 26.11° C | 61% | 1016 hPa | 2.54 mm | - | - | - |
| 1777736404 | 26.11° C | 60% | 1017 hPa | 2.54 mm | - | - | - |
| 1777735203 | 26.67° C | 60% | 1018 hPa | 2.54 mm | - | - | - |
| 1777731003 | 23.33° C | 71% | 1019 hPa | 2.54 mm | - | - | - |
| 1777726803 | 22.22° C | 80% | 1019 hPa | 2.54 mm | - | - | - |
| 1777720803 | 20.56° C | 91% | 1018 hPa | 2.54 mm | - | - | - |
| 1777718403 | 15° C | 89% | 1018 hPa | 2.54 mm | - | - | - |
| 1777717806 | 15° C | 89% | 1018 hPa | 2.54 mm | - | - | - |
| 1777716004 | 16.11° C | 89% | 1017 hPa | 2.54 mm | - | - | - |
| 1777704603 | 16.67° C | 89% | 1016 hPa | 2.54 mm | - | - | - |
| 1777704003 | 16.67° C | 89% | 1016 hPa | 2.54 mm | - | - | - |
| 1777701004 | 16.11° C | 89% | 1016 hPa | 2.54 mm | - | - | - |
| 1777699203 | 17.22° C | 89% | 1016 hPa | 2.54 mm | - | - | - |
| 1777696203 | 18.33° C | 89% | 1016 hPa | 2.54 mm | - | - | - |
| 1777695603 | 18.33° C | 89% | 1016 hPa | 2.54 mm | - | - | - |
| 1777687203 | 21.11° C | 83% | 1017 hPa | 2.54 mm | - | - | - |
| 1777684208 | 22.22° C | 83% | 1017 hPa | 2.54 mm | - | - | - |
| 1777674005 | 23.33° C | 83% | 1016 hPa | 2.54 mm | - | - | - |
| 1777673403 | 23.33° C | 83% | 1016 hPa | 2.54 mm | - | - | - |
| 1777668603 | 23.33° C | 79% | 1015 hPa | 2.54 mm | - | - | - |
| 1777667403 | 23.33° C | 78% | 1015 hPa | 2.54 mm | - | - | - |
| 1777665003 | 24.44° C | 74% | 1015 hPa | 2.54 mm | - | - | - |
* Rain latest hour (hover to see other rain measurements)
** Current wind speed in m/s (hover to see current wind gust speed)